Location: Newark
(43.4306°N, 0.3089°E)
Time: 12:34:13
(UTC+00:00)

Vanguard 3 - Pass Details

Date: 26 August 2019
Orbit: 508 x 3262 km, 33.3° (Epoch: 23 October)

Event Time Altitude Azimuth Distance (km) Brightness Sun altitude
Rises 15:52:14 0° 236° (WSW) 5,693 12.5 30.2°
Reaches altitude 10° 15:57:06 10° 229° (SW) 4,189 11.9 29.4°
Maximum altitude 16:05:44 31° 172° (S) 2,017 9.5 27.8°
Drops below altitude 10° 16:11:10 10° 112° (ESE) 2,582 9.4 26.9°
Sets 16:13:28 0° 101° (E) 3,271 9.7 26.5°
